Weather History for Houston Intercontinental, TX

Change the Weather History Date:

Monday, December 16, 2013

  Actual Average Record
Temperature  
Mean Temperature 46 °F -  
Max Temperature 63 °F 61 °F 80 °F (2006)
Min Temperature 30 °F 40 °F 28 °F (1999)
Degree Days  
Heating Degree Days 18    
Moisture  
Dew Point 35 °F    
Average Humidity 69    
Maximum Humidity 100    
Minimum Humidity 28    
Precipitation  
Precipitation 0.00 in - - ()
Sea Level Pressure  
Sea Level Pressure 30.30 in    
Wind  
Wind Speed 1 mph (South)    
Max Wind Speed 7 mph    
Max Gust Speed -    
Visibility 10 miles    
Events      
Averages and records for this station are not official NWS values.
T = Trace of Precipitation, MM = Missing Value Source: NWS Daily Summary

Daily Weather History Graph

Daily Weather History Graph

Search for Another Location

Airport:

Trip Planner

Search our weather history database for the weather conditions in past years. The results will help you decide how hot, cold, wet, or windy it might be!

Date:

Astronomy

Dec. 16, 2013 Rise Set
Actual Time 7:10 AM CST 5:23 PM CST
Civil Twilight 6:44 AM CST 5:50 PM CST
Nautical Twilight 6:14 AM CST 6:20 PM CST
Astronomical Twilight 5:44 AM CST 6:49 PM CST
Moon 5:11 PM CST (12/16) 6:23 AM CST (12/16)
Length of Visible Light 11h 06m
Length of Day
10h 13m
Full, 100% of the Moon is Illuminated
Dec 16
Full
Dec 17
Full
Dec 25
Last Quarter
Jan 1
New
Jan 7
First Quarter

Hourly Weather History & Observations

Time (CST) Temp. Windchill Dew Point Humidity Pressure Visibility Wind Dir Wind Speed Gust Speed Precip Events Conditions
12:53 AM 35.1 °F - 34.0 °F 96% 30.33 in 10.0 mi Calm Calm - N/A   Clear
1:53 AM 35.1 °F - 34.0 °F 96% 30.33 in 10.0 mi Calm Calm - N/A   Clear
2:53 AM 34.0 °F - 33.1 °F 96% 30.32 in 10.0 mi Calm Calm - N/A   Clear
3:53 AM 33.1 °F - 32.0 °F 96% 30.32 in 10.0 mi Calm Calm - N/A   Clear
4:53 AM 30.9 °F - 30.9 °F 100% 30.31 in 10.0 mi Calm Calm - N/A   Clear
5:53 AM 33.1 °F - 32.0 °F 96% 30.32 in 10.0 mi Calm Calm - N/A   Clear
6:53 AM 30.9 °F 27.5 °F 30.9 °F 100% 30.33 in 10.0 mi NW 3.5 mph - N/A   Clear
7:53 AM 33.1 °F - 32.0 °F 96% 30.35 in 10.0 mi Calm Calm - N/A   Partly Cloudy
8:53 AM 42.1 °F - 37.9 °F 85% 30.36 in 10.0 mi Calm Calm - N/A   Clear
9:53 AM 48.9 °F - 37.0 °F 64% 30.36 in 10.0 mi SSW 5.8 mph - N/A   Clear
10:53 AM 54.0 °F - 35.1 °F 49% 30.35 in 10.0 mi Variable 3.5 mph - N/A   Clear
11:53 AM 57.0 °F - 33.1 °F 40% 30.32 in 10.0 mi Calm Calm - N/A   Clear
12:53 PM 59.0 °F - 33.1 °F 38% 30.29 in 10.0 mi Calm Calm - N/A   Clear
1:53 PM 62.1 °F - 33.1 °F 34% 30.26 in 10.0 mi Calm Calm - N/A   Clear
2:53 PM 63.0 °F - 32.0 °F 31% 30.25 in 10.0 mi WSW 3.5 mph - N/A   Clear
3:53 PM 62.1 °F - 30.0 °F 30% 30.25 in 10.0 mi Calm Calm - N/A   Clear
4:53 PM 57.9 °F - 36.0 °F 44% 30.25 in 10.0 mi Calm Calm - N/A   Clear
5:53 PM 52.0 °F - 37.0 °F 57% 30.25 in 10.0 mi Calm Calm - N/A   Clear
6:53 PM 52.0 °F - 37.9 °F 59% 30.27 in 10.0 mi SSE 5.8 mph - N/A   Clear
7:53 PM 50.0 °F - 39.9 °F 68% 30.28 in 10.0 mi SSE 6.9 mph - N/A   Clear
8:53 PM 48.0 °F - 39.9 °F 74% 30.29 in 10.0 mi South 4.6 mph - N/A   Clear
9:53 PM 48.0 °F - 39.9 °F 74% 30.30 in 10.0 mi South 3.5 mph - N/A   Clear
10:53 PM 46.0 °F 44.8 °F 39.0 °F 76% 30.30 in 10.0 mi South 3.5 mph - N/A   Clear
11:53 PM 41.0 °F - 37.0 °F 86% 30.30 in 10.0 mi Calm Calm - N/A   Clear